Track QB50P1 (EO-79) now! 10-day predictions QB50P1 (EO-79) is classified as:
1 40025U 14033R 25140.66676564 .00007217 00000-0 44549-3 0 9996 2 40025 98.0825 122.1585 0012322 117.5570 242.6911 15.10178571593632